This is the latest recevied weather packets stored in our database for station/object IW2LSY-11. If no packets are shown the sender has not sent any weather packets the latest 10 day(s).
| Time | Temp. | Humidity | Pressure | Rain* | Wind** | Luminosity | Snow |
|---|---|---|---|---|---|---|---|
| 1778049608 | 13.33° C | 91% | 1010.6 hPa | - | - | 305 W/m² | - |
| 1778049008 | 13.33° C | 97% | 1010.9 hPa | - | - | 305 W/m² | - |
| 1778048408 | 12.78° C | 97% | 1010.9 hPa | - | - | 305 W/m² | - |
| 1778047808 | 13.33° C | 96% | 1011 hPa | - | - | 305 W/m² | - |
| 1778047208 | 12.78° C | 94% | 1010.7 hPa | - | - | 306 W/m² | - |
| 1778046609 | 12.78° C | 94% | 1010.8 hPa | - | - | 306 W/m² | - |
| 1778046009 | 12.78° C | 95% | 1010.7 hPa | - | - | 306 W/m² | - |
| 1778045409 | 12.78° C | 96% | 1010.8 hPa | - | - | 307 W/m² | - |
| 1778044809 | 12.78° C | 96% | 1010.8 hPa | - | - | 308 W/m² | - |
| 1778044210 | 12.78° C | 95% | 1010.9 hPa | - | - | 308 W/m² | - |
| 1778043610 | 12.22° C | 99% | 1010.7 hPa | - | - | 308 W/m² | - |
| 1778043010 | 12.22° C | 99% | 1010.7 hPa | - | - | 309 W/m² | - |
| 1778042410 | 12.78° C | 95% | 1010.8 hPa | - | - | 310 W/m² | - |
| 1778041811 | 12.22° C | 10% | - | - | - | 310 W/m² | - |
| 1778041211 | 12.22° C | 97% | 1010.5 hPa | - | - | 310 W/m² | - |
| 1778040611 | 12.22° C | 10% | - | - | - | 310 W/m² | - |
| 1778040011 | 11.67° C | 10% | - | - | - | 310 W/m² | - |
| 1778039412 | 12.22° C | 10% | - | - | - | 311 W/m² | - |
| 1778038813 | 12.22° C | 10% | - | - | - | 311 W/m² | - |
| 1778038213 | 12.22° C | 10% | - | - | - | 311 W/m² | - |
| 1778037613 | 12.22° C | 10% | - | - | - | 311 W/m² | - |
| 1778037013 | 11.67° C | 10% | - | - | - | 312 W/m² | - |
| 1778036414 | 12.78° C | 95% | 1011.4 hPa | - | - | 313 W/m² | - |
| 1778035814 | 11.67° C | 10% | - | - | - | 313 W/m² | - |
| 1778035215 | 12.22° C | 10% | - | - | - | 313 W/m² | - |
* Rain since midnight (hover to see other rain measurements)
** Current wind speed in m/s (hover to see current wind gust speed)